| time (UTC) | temp F | wind direction | speed MPH | gust MPH | rain 1hr in | rain 24hr in | rain mn in | humidity % | barometer mb |
| 20260905170640 | 72 | 325 | 3.0 | 3.0 | 0.00 | 0.00 | 0.00 | 63 | 1012.9 |
| 20260905170134 | 71 | 68 | 3.0 | 3.0 | 0.00 | 0.00 | 0.00 | 66 | 1013.0 |
| 20260905165628 | 71 | 12 | 3.0 | 3.0 | 0.00 | 0.00 | 0.00 | 66 | 1013.0 |
| 20260905165119 | 71 | 341 | 2.0 | 2.0 | 0.00 | 0.00 | 0.00 | 69 | 1013.1 |
| 20260905164614 | 71 | 0 | 5.0 | 7.0 | 0.00 | 0.00 | 0.00 | 67 | 1013.0 |
| 20260905164113 | 71 | 27 | 4.0 | 5.0 | 0.00 | 0.00 | 0.00 | 65 | 1012.6 |
| 20260905163609 | 72 | 32 | 1.0 | 2.0 | 0.00 | 0.00 | 0.00 | 66 | 1012.9 |
| 20260905163106 | 71 | 35 | 3.0 | 5.0 | 0.00 | 0.00 | 0.00 | 66 | 1012.6 |
| 20260905162602 | 71 | 334 | 5.0 | 7.0 | 0.00 | 0.00 | 0.00 | 66 | 1013.0 |
| 20260905162100 | 71 | 281 | 5.0 | 6.0 | 0.00 | 0.00 | 0.00 | 67 | 1013.2 |
| 20260905161555 | 71 | 275 | 2.0 | 3.0 | 0.00 | 0.00 | 0.00 | 67 | 1012.9 |
| 20260905161053 | 71 | 255 | 1.0 | 3.0 | 0.00 | 0.00 | 0.00 | 68 | 1013.0 |
| 20260905160552 | 71 | 327 | 5.0 | 6.0 | 0.00 | 0.00 | 0.00 | 67 | 1013.2 |
| 20260905160051 | 70 | 322 | 5.0 | 6.0 | 0.00 | 0.00 | 0.00 | 68 | 1013.1 |
| 20260905155545 | 71 | 0 | 5.0 | 6.0 | 0.00 | 0.00 | 0.00 | 67 | 1013.3 |
| 20260905155044 | 71 | 359 | 8.0 | 10.0 | 0.00 | 0.00 | 0.00 | 67 | 1013.1 |
| 20260905154539 | 71 | 345 | 2.0 | 3.0 | 0.00 | 0.00 | 0.00 | 67 | 1013.3 |
| 20260905154035 | 70 | 358 | 4.0 | 5.0 | 0.00 | 0.00 | 0.00 | 68 | 1013.3 |
| 20260905153531 | 71 | 15 | 7.0 | 8.0 | 0.00 | 0.00 | 0.00 | 67 | 1013.0 |
| 20260905153030 | 71 | 31 | 4.0 | 5.0 | 0.00 | 0.00 | 0.00 | 67 | 1013.2 |
| 20260905152525 | 70 | 39 | 3.0 | 3.0 | 0.00 | 0.00 | 0.00 | 70 | 1013.5 |
| 20260905152021 | 70 | 298 | 2.0 | 2.0 | 0.00 | 0.00 | 0.00 | 70 | 1013.2 |
| 20260905151515 | 70 | 303 | 5.0 | 6.0 | 0.00 | 0.00 | 0.00 | 71 | 1013.4 |
| 20260905151010 | 70 | 350 | 5.0 | 6.0 | 0.00 | 0.00 | 0.00 | 69 | 1013.6 |
| 20260905150500 | 70 | 317 | 8.0 | 13.0 | 0.00 | 0.00 | 0.00 | 71 | 1013.6 |
| 20260905145957 | 69 | 0 | 3.0 | 5.0 | 0.00 | 0.00 | 0.00 | 73 | 1013.5 |
| 20260905145452 | 69 | 355 | 4.0 | 7.0 | 0.00 | 0.00 | 0.00 | 72 | 1013.5 |
| 20260905144951 | 69 | 343 | 7.0 | 7.0 | 0.00 | 0.00 | 0.00 | 74 | 1013.3 |
| 20260905144446 | 69 | 2 | 3.0 | 3.0 | 0.00 | 0.00 | 0.00 | 74 | 1013.5 |
| 20260905143945 | 68 | 1 | 2.0 | 2.0 | 0.00 | 0.00 | 0.00 | 77 | 1013.3 |
| 20260905143444 | 68 | 355 | 3.0 | 5.0 | 0.00 | 0.00 | 0.00 | 76 | 1013.6 |
| 20260905142939 | 67 | 20 | 3.0 | 3.0 | 0.00 | 0.00 | 0.00 | 78 | 1013.3 |
| 20260905142438 | 67 | 276 | 1.0 | 1.0 | 0.00 | 0.00 | 0.00 | 81 | 1013.5 |
| 20260905141934 | 68 | 330 | 3.0 | 3.0 | 0.00 | 0.00 | 0.00 | 78 | 1013.5 |
| 20260905141428 | 68 | 249 | 3.0 | 5.0 | 0.00 | 0.00 | 0.00 | 78 | 1013.5 |
| 20260905140925 | 68 | 14 | 0.0 | 1.0 | 0.00 | 0.00 | 0.00 | 79 | 1013.5 |
| 20260905140420 | 67 | 186 | 2.0 | 2.0 | 0.00 | 0.00 | 0.00 | 83 | 1013.5 |
| 20260905135918 | 65 | 275 | 2.0 | 3.0 | 0.00 | 0.00 | 0.00 | 86 | 1013.5 |
| 20260905135414 | 65 | 228 | 3.0 | 3.0 | 0.00 | 0.00 | 0.00 | 89 | 1013.6 |
| 20260905134909 | 65 | 212 | 5.0 | 6.0 | 0.00 | 0.00 | 0.00 | 89 | 1013.6 |
| 20260905134409 | 65 | 211 | 6.0 | 7.0 | 0.00 | 0.00 | 0.00 | 90 | 1013.5 |
| 20260905133903 | 65 | 237 | 3.0 | 3.0 | 0.00 | 0.00 | 0.00 | 91 | 1013.5 |
| 20260905133358 | 64 | 261 | 1.0 | 1.0 | 0.00 | 0.00 | 0.00 | 92 | 1013.5 |
| 20260905132857 | 64 | 177 | 2.0 | 2.0 | 0.00 | 0.00 | 0.00 | 93 | 1013.6 |
| 20260905132353 | 65 | 182 | 2.0 | 2.0 | 0.00 | 0.00 | 0.00 | 96 | 1013.4 |
| 20260905131852 | 64 | 186 | 2.0 | 2.0 | 0.00 | 0.00 | 0.00 | 99 | 1013.0 |
| 20260905131348 | 64 | 4 | 0.0 | 0.0 | 0.00 | 0.00 | 0.00 | 99 | 1013.4 |
| 20260905130843 | 63 | 89 | 1.0 | 2.0 | 0.00 | 0.00 | 0.00 | 99 | 1013.7 |
| 20260905130342 | 62 | 284 | 1.0 | 1.0 | 0.00 | 0.00 | 0.00 | 99 | 1013.6 |
| 20260905125837 | 62 | 229 | 1.0 | 1.0 | 0.00 | 0.00 | 0.00 | 99 | 1013.6 |
| 20260905125332 | 61 | 253 | 0.0 | 0.0 | 0.00 | 0.00 | 0.00 | 99 | 1013.9 |
| 20260905124828 | 61 | 225 | 1.0 | 2.0 | 0.00 | 0.00 | 0.00 | 99 | 1013.9 |
| 20260905124325 | 61 | 235 | 2.0 | 2.0 | 0.00 | 0.00 | 0.00 | 99 | 1013.8 |
| 20260905123824 | 60 | 223 | 2.0 | 3.0 | 0.00 | 0.00 | 0.00 | 99 | 1013.6 |
| 20260905123322 | 60 | 231 | 3.0 | 3.0 | 0.00 | 0.00 | 0.00 | 99 | 1014.0 |
| 20260905122821 | 59 | 216 | 2.0 | 2.0 | 0.00 | 0.00 | 0.00 | 99 | 1013.9 |
| 20260905122320 | 59 | 233 | 0.0 | 1.0 | 0.00 | 0.00 | 0.00 | 99 | 1013.8 |
| 20260905121816 | 59 | 246 | 1.0 | 1.0 | 0.00 | 0.00 | 0.00 | 99 | 1013.8 |
| 20260905121313 | 58 | 252 | 0.0 | 0.0 | 0.00 | 0.00 | 0.00 | 99 | 1013.5 |
| 20260905120811 | 58 | 248 | 1.0 | 1.0 | 0.00 | 0.00 | 0.00 | 99 | 1013.7 |
| 20260905120306 | 58 | 252 | 0.0 | 1.0 | 0.00 | 0.00 | 0.00 | 99 | 1013.6 |
| 20260905115801 | 58 | 257 | 0.0 | 0.0 | 0.00 | 0.00 | 0.00 | 99 | 1013.5 |
| 20260905115300 | 57 | 283 | 0.0 | 1.0 | 0.00 | 0.00 | 0.00 | 99 | 1013.4 |
| 20260905114800 | 57 | 288 | 0.0 | 0.0 | 0.00 | 0.00 | 0.00 | 99 | 1013.4 |
| 20260905114259 | 57 | 266 | 1.0 | 1.0 | 0.00 | 0.00 | 0.00 | 99 | 1013.3 |
| 20260905113759 | 57 | 270 | 0.0 | 1.0 | 0.00 | 0.00 | 0.00 | 99 | 1013.3 |
| 20260905113254 | 57 | 276 | 0.0 | 0.0 | 0.00 | 0.00 | 0.00 | 99 | 1013.5 |
| 20260905112749 | 56 | 267 | 0.0 | 0.0 | 0.00 | 0.00 | 0.00 | 99 | 1013.2 |
| 20260905112244 | 56 | 261 | 0.0 | 0.0 | 0.00 | 0.00 | 0.00 | 99 | 1013.3 |
| 20260905111739 | 56 | 254 | 0.0 | 0.0 | 0.00 | 0.00 | 0.00 | 99 | 1013.2 |
| 20260905111233 | 56 | 227 | 1.0 | 1.0 | 0.00 | 0.00 | 0.00 | 99 | 1013.1 |
| 20260905110733 | 56 | 263 | 0.0 | 0.0 | 0.00 | 0.00 | 0.00 | 99 | 1013.2 |
| 20260905110227 | 56 | 284 | 0.0 | 0.0 | 0.00 | 0.00 | 0.00 | 99 | 1013.2 |
| 20260905105722 | 56 | 265 | 0.0 | 0.0 | 0.00 | 0.00 | 0.00 | 99 | 1012.9 |
| 20260905105221 | 56 | 269 | 0.0 | 0.0 | 0.00 | 0.00 | 0.00 | 99 | 1012.6 |
| 20260905104716 | 56 | 258 | 0.0 | 0.0 | 0.00 | 0.00 | 0.00 | 99 | 1012.9 |
| 20260905104213 | 56 | 265 | 0.0 | 0.0 | 0.00 | 0.00 | 0.00 | 99 | 1012.9 |
| 20260905103707 | 56 | 281 | 0.0 | 0.0 | 0.00 | 0.00 | 0.00 | 99 | 1012.8 |
| 20260905103203 | 56 | 265 | 0.0 | 0.0 | 0.00 | 0.00 | 0.00 | 99 | 1012.5 |
| 20260905102658 | 56 | 289 | 0.0 | 0.0 | 0.00 | 0.00 | 0.00 | 99 | 1012.8 |
| 20260905102155 | 56 | 269 | 0.0 | 0.0 | 0.00 | 0.00 | 0.00 | 99 | 1012.6 |
| 20260905101653 | 56 | 316 | 0.0 | 0.0 | 0.00 | 0.00 | 0.00 | 99 | 1012.3 |
| 20260905101152 | 56 | 273 | 0.0 | 0.0 | 0.00 | 0.00 | 0.00 | 99 | 1012.5 |
| 20260905100648 | 56 | 272 | 0.0 | 0.0 | 0.00 | 0.00 | 0.00 | 99 | 1012.5 |
| 20260905100143 | 56 | 291 | 0.0 | 0.0 | 0.00 | 0.00 | 0.00 | 99 | 1012.2 |
| 20260905095642 | 56 | 276 | 0.0 | 0.0 | 0.00 | 0.00 | 0.00 | 99 | 1012.3 |
| 20260905095137 | 57 | 270 | 0.0 | 0.0 | 0.00 | 0.00 | 0.00 | 99 | 1012.2 |
| 20260905094632 | 57 | 268 | 0.0 | 0.0 | 0.00 | 0.00 | 0.00 | 99 | 1011.9 |
| 20260905094131 | 57 | 266 | 0.0 | 0.0 | 0.00 | 0.00 | 0.00 | 99 | 1012.3 |
| 20260905093626 | 57 | 273 | 0.0 | 0.0 | 0.00 | 0.00 | 0.00 | 99 | 1012.2 |
| 20260905093122 | 56 | 275 | 0.0 | 0.0 | 0.00 | 0.00 | 0.00 | 99 | 1012.0 |
| 20260905092617 | 57 | 297 | 0.0 | 0.0 | 0.00 | 0.00 | 0.00 | 99 | 1012.2 |
| 20260905092113 | 57 | 279 | 0.0 | 0.0 | 0.00 | 0.00 | 0.00 | 99 | 1012.2 |
| 20260905091612 | 57 | 269 | 0.0 | 0.0 | 0.00 | 0.00 | 0.00 | 99 | 1012.3 |
| 20260905091107 | 57 | 267 | 0.0 | 0.0 | 0.00 | 0.00 | 0.00 | 99 | 1012.2 |
| 20260905090606 | 57 | 280 | 0.0 | 0.0 | 0.00 | 0.00 | 0.00 | 99 | 1012.4 |
| 20260905085600 | 57 | 299 | 0.0 | 0.0 | 0.00 | 0.00 | 0.00 | 99 | 1012.3 |
| 20260905085057 | 57 | 272 | 0.0 | 0.0 | 0.00 | 0.00 | 0.00 | 99 | 1012.5 |
| 20260905084555 | 57 | 306 | 0.0 | 0.0 | 0.00 | 0.00 | 0.00 | 99 | 1012.3 |
| 20260905084051 | 58 | 281 | 0.0 | 0.0 | 0.00 | 0.00 | 0.00 | 99 | 1012.1 |
| 20260905083545 | 58 | 267 | 0.0 | 0.0 | 0.00 | 0.00 | 0.00 | 99 | 1012.1 |
| 20260905083042 | 58 | 280 | 0.0 | 0.0 | 0.00 | 0.00 | 0.00 | 99 | 1012.3 |
| 20260905082536 | 58 | 296 | 0.0 | 0.0 | 0.00 | 0.00 | 0.00 | 99 | 1012.5 |
| 20260905082033 | 58 | 260 | 0.0 | 0.0 | 0.00 | 0.00 | 0.00 | 99 | 1012.3 |
| 20260905081526 | 58 | 262 | 0.0 | 0.0 | 0.00 | 0.00 | 0.00 | 99 | 1012.3 |
| 20260905081026 | 58 | 270 | 0.0 | 0.0 | 0.00 | 0.00 | 0.00 | 99 | 1012.4 |
| 20260905080521 | 58 | 232 | 0.0 | 0.0 | 0.00 | 0.00 | 0.00 | 99 | 1012.2 |
| 20260905080017 | 58 | 300 | 0.0 | 0.0 | 0.00 | 0.00 | 0.00 | 99 | 1012.3 |
| 20260905075509 | 58 | 298 | 0.0 | 0.0 | 0.00 | 0.00 | 0.00 | 99 | 1012.4 |
| 20260905075008 | 58 | 294 | 0.0 | 0.0 | 0.00 | 0.00 | 0.00 | 99 | 1012.4 |
| 20260905074458 | 58 | 293 | 0.0 | 0.0 | 0.00 | 0.00 | 0.00 | 99 | 1012.4 |
| 20260905073953 | 58 | 303 | 0.0 | 0.0 | 0.00 | 0.00 | 0.00 | 99 | 1012.4 |
| 20260905073448 | 58 | 279 | 0.0 | 0.0 | 0.00 | 0.00 | 0.00 | 99 | 1012.4 |
| 20260905072943 | 59 | 265 | 0.0 | 0.0 | 0.00 | 0.00 | 0.00 | 99 | 1012.3 |
| 20260905072438 | 59 | 282 | 0.0 | 0.0 | 0.00 | 0.00 | 0.00 | 99 | 1012.5 |
| 20260905071928 | 59 | 284 | 0.0 | 0.0 | 0.00 | 0.00 | 0.00 | 99 | 1013.0 |
| 20260905071425 | 59 | 311 | 0.0 | 0.0 | 0.00 | 0.00 | 0.00 | 99 | 1012.8 |
| 20260905070924 | 59 | 285 | 0.0 | 0.0 | 0.00 | 0.00 | 0.00 | 99 | 1012.6 |
| 20260905070421 | 59 | 245 | 0.0 | 0.0 | 0.00 | 0.00 | 0.00 | 99 | 1012.4 |
| 20260905065920 | 59 | 262 | 0.0 | 0.0 | 0.00 | 0.00 | 0.00 | 99 | 1012.6 |
| 20260905065418 | 59 | 268 | 0.0 | 0.0 | 0.00 | 0.00 | 0.00 | 99 | 1012.8 |
| 20260905064914 | 59 | 292 | 0.0 | 0.0 | 0.00 | 0.00 | 0.00 | 99 | 1012.6 |
| 20260905064409 | 59 | 286 | 0.0 | 0.0 | 0.00 | 0.00 | 0.00 | 99 | 1012.6 |
| 20260905063908 | 59 | 284 | 0.0 | 0.0 | 0.00 | 0.00 | 0.00 | 99 | 1012.6 |
| 20260905063403 | 59 | 262 | 0.0 | 0.0 | 0.00 | 0.00 | 0.00 | 99 | 1013.0 |
| 20260905062900 | 59 | 290 | 0.0 | 0.0 | 0.00 | 0.00 | 0.00 | 98 | 1012.8 |
| 20260905062354 | 59 | 256 | 0.0 | 0.0 | 0.00 | 0.00 | 0.00 | 98 | 1012.8 |
| 20260905061849 | 59 | 281 | 0.0 | 0.0 | 0.00 | 0.00 | 0.00 | 98 | 1013.0 |
| 20260905061348 | 59 | 229 | 1.0 | 1.0 | 0.00 | 0.00 | 0.00 | 98 | 1013.1 |
| 20260905060843 | 59 | 125 | 1.0 | 2.0 | 0.00 | 0.00 | 0.00 | 98 | 1013.1 |
| 20260905060340 | 59 | 100 | 0.0 | 0.0 | 0.00 | 0.00 | 0.00 | 98 | 1013.1 |
| 20260905055838 | 59 | 335 | 0.0 | 0.0 | 0.00 | 0.00 | 0.00 | 98 | 1013.2 |
| 20260905055334 | 59 | 307 | 0.0 | 1.0 | 0.00 | 0.00 | 0.00 | 98 | 1012.9 |
| 20260905054833 | 59 | 335 | 0.0 | 0.0 | 0.00 | 0.00 | 0.00 | 98 | 1013.0 |
| 20260905054330 | 59 | 271 | 0.0 | 0.0 | 0.00 | 0.00 | 0.00 | 98 | 1013.3 |
| 20260905053829 | 60 | 301 | 0.0 | 0.0 | 0.00 | 0.00 | 0.00 | 98 | 1013.1 |
| 20260905053324 | 60 | 320 | 0.0 | 0.0 | 0.00 | 0.00 | 0.00 | 98 | 1013.2 |
| 20260905052820 | 60 | 282 | 0.0 | 0.0 | 0.00 | 0.00 | 0.00 | 98 | 1013.2 |
| 20260905052319 | 60 | 273 | 0.0 | 0.0 | 0.00 | 0.00 | 0.00 | 98 | 1012.9 |
| 20260905051814 | 59 | 266 | 0.0 | 0.0 | 0.00 | 0.00 | 0.00 | 98 | 1013.2 |
| 20260905051310 | 60 | 288 | 0.0 | 0.0 | 0.00 | 0.00 | 0.00 | 98 | 1013.1 |
| 20260905050807 | 60 | 260 | 0.0 | 0.0 | 0.00 | 0.00 | 0.00 | 98 | 1013.5 |
| 20260905050303 | 60 | 252 | 0.0 | 0.0 | 0.00 | 0.00 | 0.00 | 98 | 1013.3 |
| 20260905045802 | 60 | 257 | 0.0 | 0.0 | 0.00 | 0.00 | 0.00 | 98 | 1013.4 |
| 20260905045258 | 60 | 264 | 0.0 | 0.0 | 0.00 | 0.00 | 0.00 | 98 | 1013.3 |
| 20260905044753 | 60 | 281 | 0.0 | 0.0 | 0.00 | 0.00 | 0.00 | 98 | 1013.2 |
| 20260905044248 | 60 | 270 | 0.0 | 0.0 | 0.00 | 0.00 | 0.00 | 97 | 1013.2 |
| 20260905043747 | 60 | 264 | 0.0 | 0.0 | 0.00 | 0.00 | 0.00 | 97 | 1013.1 |
| 20260905043242 | 60 | 268 | 0.0 | 0.0 | 0.00 | 0.00 | 0.00 | 97 | 1013.3 |
| 20260905042737 | 60 | 273 | 0.0 | 0.0 | 0.00 | 0.00 | 0.00 | 97 | 1013.2 |
| 20260905042236 | 61 | 277 | 0.0 | 0.0 | 0.00 | 0.00 | 0.00 | 97 | 1013.3 |
| 20260905041731 | 61 | 252 | 0.0 | 0.0 | 0.00 | 0.00 | 0.00 | 97 | 1013.4 |
| 20260905041227 | 61 | 273 | 0.0 | 0.0 | 0.00 | 0.00 | 0.00 | 97 | 1013.3 |
| 20260905040722 | 61 | 279 | 0.0 | 0.0 | 0.00 | 0.00 | 0.00 | 97 | 1013.4 |
| 20260905040221 | 61 | 213 | 0.0 | 0.0 | 0.00 | 0.00 | 0.00 | 97 | 1013.3 |
| 20260905035720 | 61 | 251 | 0.0 | 0.0 | 0.00 | 0.29 | 0.29 | 97 | 1013.3 |
| 20260905035217 | 61 | 271 | 0.0 | 0.0 | 0.00 | 0.29 | 0.29 | 96 | 1013.2 |
| 20260905034713 | 62 | 245 | 0.0 | 0.0 | 0.00 | 0.29 | 0.29 | 96 | 1013.2 |
| 20260905034212 | 62 | 268 | 0.0 | 0.0 | 0.00 | 0.29 | 0.29 | 96 | 1013.2 |
| 20260905033711 | 62 | 276 | 0.0 | 0.0 | 0.00 | 0.29 | 0.29 | 96 | 1013.6 |
| 20260905033207 | 62 | 268 | 0.0 | 0.0 | 0.00 | 0.29 | 0.29 | 96 | 1013.5 |
| 20260905032706 | 62 | 271 | 0.0 | 0.0 | 0.00 | 0.29 | 0.29 | 96 | 1013.3 |
| 20260905032201 | 62 | 271 | 0.0 | 0.0 | 0.00 | 0.29 | 0.29 | 96 | 1013.3 |
| 20260905031657 | 62 | 267 | 0.0 | 0.0 | 0.00 | 0.29 | 0.29 | 96 | 1013.0 |
| 20260905031152 | 62 | 279 | 0.0 | 0.0 | 0.00 | 0.29 | 0.29 | 97 | 1013.2 |
| 20260905030647 | 62 | 258 | 0.0 | 0.0 | 0.00 | 0.29 | 0.29 | 97 | 1013.1 |
| 20260905030142 | 62 | 286 | 0.0 | 0.0 | 0.00 | 0.29 | 0.29 | 97 | 1013.2 |
| 20260905025637 | 62 | 265 | 0.0 | 0.0 | 0.00 | 0.29 | 0.29 | 96 | 1013.0 |
| 20260905025133 | 62 | 258 | 0.0 | 0.0 | 0.00 | 0.29 | 0.29 | 96 | 1013.2 |
| 20260905024629 | 63 | 254 | 0.0 | 0.0 | 0.00 | 0.29 | 0.29 | 96 | 1013.2 |
| 20260905024125 | 63 | 265 | 0.0 | 0.0 | 0.00 | 0.29 | 0.29 | 96 | 1013.2 |
| 20260905023620 | 63 | 279 | 0.0 | 0.0 | 0.00 | 0.29 | 0.29 | 96 | 1013.1 |
| 20260905023119 | 63 | 273 | 0.0 | 0.0 | 0.00 | 0.29 | 0.29 | 96 | 1013.1 |
| 20260905022613 | 63 | 275 | 0.0 | 0.0 | 0.00 | 0.29 | 0.29 | 96 | 1013.1 |
| 20260905022109 | 63 | 265 | 0.0 | 0.0 | 0.00 | 0.29 | 0.29 | 95 | 1013.2 |
| 20260905021608 | 64 | 270 | 0.0 | 0.0 | 0.00 | 0.29 | 0.29 | 95 | 1013.1 |
| 20260905021104 | 64 | 207 | 0.0 | 0.0 | 0.00 | 0.29 | 0.29 | 95 | 1013.2 |
| 20260905020603 | 64 | 272 | 0.0 | 0.0 | 0.00 | 0.29 | 0.29 | 95 | 1013.2 |
| 20260905020059 | 64 | 262 | 0.0 | 0.0 | 0.00 | 0.29 | 0.29 | 95 | 1013.4 |
| 20260905015557 | 65 | 257 | 0.0 | 0.0 | 0.00 | 0.29 | 0.29 | 95 | 1013.5 |
| 20260905015052 | 65 | 256 | 0.0 | 0.0 | 0.00 | 0.29 | 0.29 | 95 | 1013.7 |
| 20260905014546 | 65 | 260 | 0.0 | 0.0 | 0.00 | 0.29 | 0.29 | 95 | 1013.6 |
| 20260905014041 | 65 | 244 | 0.0 | 0.0 | 0.00 | 0.29 | 0.29 | 96 | 1013.4 |
| 20260905013532 | 65 | 270 | 0.0 | 0.0 | 0.00 | 0.29 | 0.29 | 96 | 1013.4 |
| 20260905013028 | 65 | 278 | 0.0 | 0.0 | 0.00 | 0.29 | 0.29 | 96 | 1013.3 |
| 20260905012527 | 65 | 277 | 0.0 | 0.0 | 0.00 | 0.29 | 0.29 | 96 | 1013.5 |
| 20260905012024 | 65 | 286 | 0.0 | 0.0 | 0.00 | 0.29 | 0.29 | 95 | 1013.6 |
| 20260905011520 | 65 | 317 | 0.0 | 0.0 | 0.00 | 0.29 | 0.29 | 95 | 1013.3 |
| 20260905011015 | 65 | 330 | 0.0 | 0.0 | 0.00 | 0.29 | 0.29 | 95 | 1013.3 |
| 20260905010515 | 65 | 257 | 0.0 | 0.0 | 0.00 | 0.29 | 0.29 | 95 | 1013.4 |
| 20260905010011 | 65 | 272 | 0.0 | 0.0 | 0.00 | 0.29 | 0.29 | 95 | 1013.2 |
| 20260905005507 | 65 | 256 | 0.0 | 0.0 | 0.00 | 0.29 | 0.29 | 94 | 1013.3 |
| 20260905004956 | 65 | 245 | 0.0 | 0.0 | 0.00 | 0.29 | 0.29 | 94 | 1013.4 |
| 20260905004451 | 65 | 247 | 0.0 | 0.0 | 0.00 | 0.29 | 0.29 | 94 | 1013.2 |
| 20260905003946 | 65 | 267 | 0.0 | 0.0 | 0.00 | 0.29 | 0.29 | 94 | 1013.1 |
| 20260905003442 | 65 | 267 | 0.0 | 0.0 | 0.00 | 0.29 | 0.29 | 94 | 1013.4 |
| 20260905002937 | 65 | 283 | 0.0 | 0.0 | 0.00 | 0.29 | 0.29 | 94 | 1013.2 |
| 20260905002432 | 65 | 304 | 0.0 | 0.0 | 0.00 | 0.29 | 0.29 | 94 | 1013.1 |
| 20260905001931 | 65 | 299 | 0.0 | 0.0 | 0.00 | 0.29 | 0.29 | 94 | 1013.0 |
| 20260905001427 | 66 | 255 | 0.0 | 0.0 | 0.00 | 0.29 | 0.29 | 93 | 1013.0 |
| 20260905000921 | 66 | 243 | 0.0 | 0.0 | 0.00 | 0.29 | 0.29 | 93 | 1013.2 |
| 20260905000417 | 66 | 280 | 0.0 | 0.0 | 0.00 | 0.29 | 0.29 | 93 | 1012.9 |
| 20260904235912 | 66 | 271 | 0.0 | 0.0 | 0.00 | 0.29 | 0.29 | 92 | 1012.9 |
| 20260904235408 | 66 | 273 | 0.0 | 0.0 | 0.00 | 0.29 | 0.29 | 91 | 1013.0 |
| 20260904234902 | 67 | 293 | 0.0 | 0.0 | 0.00 | 0.29 | 0.29 | 90 | 1012.9 |
| 20260904234356 | 67 | 278 | 0.0 | 0.0 | 0.00 | 0.29 | 0.29 | 88 | 1012.9 |
| 20260904233852 | 67 | 308 | 0.0 | 0.0 | 0.00 | 0.29 | 0.29 | 87 | 1013.0 |
| 20260904233348 | 68 | 275 | 0.0 | 0.0 | 0.00 | 0.29 | 0.29 | 87 | 1012.8 |
| 20260904232844 | 68 | 264 | 0.0 | 0.0 | 0.00 | 0.29 | 0.29 | 86 | 1012.8 |
| 20260904232341 | 69 | 257 | 0.0 | 0.0 | 0.00 | 0.29 | 0.29 | 84 | 1012.8 |
| 20260904231836 | 70 | 275 | 0.0 | 0.0 | 0.00 | 0.29 | 0.29 | 83 | 1012.6 |
| 20260904231331 | 71 | 271 | 0.0 | 0.0 | 0.00 | 0.29 | 0.29 | 78 | 1013.1 |
| 20260904230826 | 71 | 280 | 0.0 | 1.0 | 0.00 | 0.29 | 0.29 | 75 | 1012.8 |
| 20260904230325 | 72 | 287 | 0.0 | 1.0 | 0.00 | 0.29 | 0.29 | 73 | 1012.6 |
| 20260904225820 | 72 | 285 | 0.0 | 1.0 | 0.00 | 0.29 | 0.29 | 72 | 1012.9 |
| 20260904225318 | 72 | 311 | 1.0 | 1.0 | 0.00 | 0.29 | 0.29 | 71 | 1012.8 |
| 20260904224817 | 73 | 0 | 1.0 | 1.0 | 0.00 | 0.29 | 0.29 | 70 | 1012.8 |
| 20260904224313 | 73 | 341 | 0.0 | 0.0 | 0.00 | 0.29 | 0.29 | 70 | 1012.5 |
| 20260904223813 | 74 | 287 | 2.0 | 2.0 | 0.00 | 0.29 | 0.29 | 68 | 1012.9 |
| 20260904223312 | 74 | 7 | 4.0 | 5.0 | 0.00 | 0.29 | 0.29 | 66 | 1012.8 |
| 20260904222809 | 74 | 356 | 4.0 | 6.0 | 0.00 | 0.29 | 0.29 | 66 | 1012.6 |
| 20260904222306 | 75 | 285 | 5.0 | 7.0 | 0.00 | 0.29 | 0.29 | 65 | 1012.6 |
| 20260904221758 | 75 | 309 | 2.0 | 2.0 | 0.00 | 0.29 | 0.29 | 67 | 1012.4 |
| 20260904221253 | 75 | 347 | 3.0 | 5.0 | 0.00 | 0.29 | 0.29 | 66 | 1012.4 |
| 20260904220748 | 75 | 325 | 4.0 | 5.0 | 0.00 | 0.29 | 0.29 | 65 | 1012.4 |
| 20260904220247 | 75 | 305 | 3.0 | 6.0 | 0.00 | 0.29 | 0.29 | 65 | 1012.5 |
| 20260904215743 | 75 | 343 | 3.0 | 5.0 | 0.00 | 0.29 | 0.29 | 65 | 1012.4 |
| 20260904215238 | 75 | 265 | 2.0 | 2.0 | 0.00 | 0.29 | 0.29 | 66 | 1012.5 |
| 20260904214733 | 76 | 300 | 5.0 | 5.0 | 0.00 | 0.29 | 0.29 | 65 | 1012.3 |
| 20260904214224 | 76 | 286 | 5.0 | 8.0 | 0.00 | 0.29 | 0.29 | 65 | 1012.2 |
| 20260904213721 | 77 | 345 | 6.0 | 10.0 | 0.00 | 0.29 | 0.29 | 63 | 1012.2 |
| 20260904213213 | 77 | 321 | 7.0 | 7.0 | 0.00 | 0.29 | 0.29 | 63 | 1012.2 |
| 20260904212712 | 77 | 320 | 7.0 | 8.0 | 0.00 | 0.29 | 0.29 | 63 | 1012.1 |
| 20260904212208 | 77 | 346 | 2.0 | 2.0 | 0.00 | 0.29 | 0.29 | 63 | 1012.2 |
| 20260904211707 | 77 | 310 | 5.0 | 7.0 | 0.00 | 0.29 | 0.29 | 64 | 1012.4 |
| 20260904211202 | 77 | 351 | 7.0 | 8.0 | 0.00 | 0.29 | 0.29 | 64 | 1012.3 |
| 20260904210657 | 77 | 41 | 1.0 | 1.0 | 0.00 | 0.29 | 0.29 | 66 | 1012.1 |
| 20260904210152 | 76 | 262 | 3.0 | 5.0 | 0.00 | 0.29 | 0.29 | 64 | 1012.6 |
| 20260904205648 | 76 | 332 | 7.0 | 7.0 | 0.00 | 0.29 | 0.29 | 66 | 1012.4 |
| 20260904205144 | 76 | 311 | 3.0 | 5.0 | 0.00 | 0.29 | 0.29 | 67 | 1012.4 |
| 20260904204640 | 76 | 13 | 6.0 | 8.0 | 0.00 | 0.29 | 0.29 | 67 | 1012.5 |
| 20260904204136 | 75 | 26 | 2.0 | 2.0 | 0.00 | 0.29 | 0.29 | 69 | 1012.6 |
| 20260904203632 | 75 | 344 | 3.0 | 3.0 | 0.00 | 0.29 | 0.29 | 69 | 1012.9 |
| 20260904203128 | 75 | 347 | 6.0 | 7.0 | 0.00 | 0.29 | 0.29 | 67 | 1013.0 |
| 20260904202624 | 76 | 345 | 3.0 | 3.0 | 0.00 | 0.29 | 0.29 | 66 | 1012.8 |
| 20260904202120 | 77 | 11 | 6.0 | 9.0 | 0.00 | 0.29 | 0.29 | 65 | 1012.6 |
| 20260904201614 | 77 | 349 | 6.0 | 7.0 | 0.00 | 0.29 | 0.29 | 63 | 1012.9 |
| 20260904201109 | 77 | 333 | 5.0 | 6.0 | 0.00 | 0.29 | 0.29 | 65 | 1012.9 |
| 20260904200608 | 77 | 292 | 1.0 | 2.0 | 0.00 | 0.29 | 0.29 | 66 | 1012.8 |
| 20260904200103 | 77 | 278 | 2.0 | 2.0 | 0.00 | 0.29 | 0.29 | 65 | 1012.9 |
| 20260904195602 | 78 | 343 | 10.0 | 11.0 | 0.00 | 0.29 | 0.29 | 61 | 1013.2 |
| 20260904195056 | 77 | 287 | 3.0 | 5.0 | 0.00 | 0.29 | 0.29 | 63 | 1013.1 |
| 20260904194555 | 77 | 275 | 1.0 | 1.0 | 0.00 | 0.29 | 0.29 | 63 | 1013.1 |
| 20260904194050 | 77 | 279 | 5.0 | 6.0 | 0.00 | 0.29 | 0.29 | 63 | 1013.2 |
| 20260904193546 | 77 | 276 | 4.0 | 5.0 | 0.00 | 0.29 | 0.29 | 63 | 1013.2 |
| 20260904193043 | 76 | 266 | 1.0 | 2.0 | 0.00 | 0.29 | 0.29 | 65 | 1013.3 |
| 20260904192542 | 77 | 2 | 7.0 | 9.0 | 0.00 | 0.29 | 0.29 | 64 | 1013.2 |
| 20260904192038 | 77 | 344 | 5.0 | 6.0 | 0.00 | 0.29 | 0.29 | 61 | 1013.2 |
| 20260904191534 | 78 | 288 | 5.0 | 6.0 | 0.00 | 0.29 | 0.29 | 61 | 1013.1 |
| 20260904191031 | 78 | 334 | 5.0 | 6.0 | 0.00 | 0.29 | 0.29 | 61 | 1013.4 |
| 20260904190526 | 77 | 316 | 6.0 | 7.0 | 0.00 | 0.29 | 0.29 | 63 | 1013.0 |
| 20260904190022 | 77 | 327 | 6.0 | 10.0 | 0.00 | 0.29 | 0.29 | 62 | 1013.3 |
| 20260904185518 | 78 | 324 | 10.0 | 11.0 | 0.00 | 0.29 | 0.29 | 60 | 1013.3 |
| 20260904185013 | 77 | 266 | 2.0 | 2.0 | 0.00 | 0.29 | 0.29 | 62 | 1013.1 |
| 20260904184512 | 78 | 277 | 3.0 | 6.0 | 0.00 | 0.29 | 0.29 | 61 | 1013.2 |
| 20260904184007 | 78 | 288 | 7.0 | 11.0 | 0.00 | 0.29 | 0.29 | 60 | 1013.3 |
| 20260904183502 | 77 | 247 | 4.0 | 5.0 | 0.00 | 0.29 | 0.29 | 62 | 1013.5 |
| 20260904182958 | 77 | 279 | 3.0 | 3.0 | 0.00 | 0.29 | 0.29 | 62 | 1013.4 |
| 20260904182453 | 77 | 269 | 7.0 | 8.0 | 0.00 | 0.29 | 0.29 | 61 | 1013.4 |
| 20260904181953 | 77 | 315 | 5.0 | 6.0 | 0.00 | 0.29 | 0.29 | 61 | 1013.6 |
| 20260904181448 | 77 | 280 | 6.0 | 7.0 | 0.00 | 0.29 | 0.29 | 62 | 1013.5 |
| 20260904180943 | 76 | 335 | 4.0 | 6.0 | 0.00 | 0.29 | 0.29 | 63 | 1013.7 |
| 20260904180438 | 76 | 348 | 2.0 | 2.0 | 0.00 | 0.29 | 0.29 | 64 | 1013.8 |
| 20260904175938 | 77 | 296 | 5.0 | 7.0 | 0.00 | 0.29 | 0.29 | 61 | 1013.7 |
| 20260904175437 | 76 | 320 | 3.0 | 5.0 | 0.00 | 0.29 | 0.29 | 62 | 1013.9 |
| 20260904174932 | 76 | 248 | 5.0 | 5.0 | 0.00 | 0.29 | 0.29 | 62 | 1014.0 |
| 20260904174427 | 75 | 325 | 8.0 | 10.0 | 0.00 | 0.29 | 0.29 | 63 | 1014.0 |
| 20260904173923 | 76 | 337 | 9.0 | 10.0 | 0.00 | 0.29 | 0.29 | 61 | 1014.2 |
| 20260904173418 | 78 | 330 | 5.0 | 6.0 | 0.00 | 0.29 | 0.29 | 60 | 1014.1 |
| 20260904172914 | 77 | 254 | 6.0 | 8.0 | 0.00 | 0.29 | 0.29 | 62 | 1013.9 |
| 20260904172414 | 77 | 298 | 9.0 | 11.0 | 0.00 | 0.29 | 0.29 | 60 | 1014.0 |
| 20260904171909 | 76 | 260 | 1.0 | 2.0 | 0.00 | 0.29 | 0.29 | 64 | 1013.9 |
| 20260904171404 | 75 | 328 | 8.0 | 9.0 | 0.00 | 0.29 | 0.29 | 62 | 1013.9 |
| 20260904170901 | 75 | 343 | 7.0 | 9.0 | 0.00 | 0.29 | 0.29 | 64 | 1014.4 |